User: anonymous   Login
Location: Standeford and Andreas Observatories
(44.1397°N, 93.9969°W)
Time: 03:22:46
(UTC-05:00)
Language:

Cosmos 1500 Rocket - Orbit

View from above orbital plane
View from above orbital plane
View from above satellite
View from above satellite

Ground track
Ground track

The orbit data is extracted from the following two-line orbital elements,

1 14373U 83099B   14303.91677600  .00000690  00000-0  81253-4 0  8115
2 14373 082.5428 061.7293 0021441 151.9902 345.8097 14.83204653678504
Epoch (UTC): 30 October 2014 22:00:09
Eccentricity: 0.0021441
inclination: 82.5428°
perigee height: 604 km
apogee height: 634 km
right ascension of ascending node: 61.7293°
argument of perigee: 151.9902°
revolutions per day: 14.83204653
mean anomaly at epoch: 345.8097°
orbit number at epoch: 67850

The dashed part of the orbit path shows where the satellite is in the earth's shadow,  

DLR